TimeMDT,TemperatureF,Dew PointF,Humidity,Sea Level PressureIn,VisibilityMPH,Wind Direction,Wind SpeedMPH,Gust SpeedMPH,PrecipitationIn,Events,Conditions,WindDirDegrees,DateUTC
12:15 AM,35.6,32.0,87,30.28,10.0,Calm,Calm,-,N/A,,Clear,0,2013-05-10 06:15:00
12:35 AM,33.8,32.0,93,30.29,10.0,Calm,Calm,-,N/A,,Clear,0,2013-05-10 06:35:00
12:55 AM,33.8,32.0,93,30.29,10.0,Calm,Calm,-,N/A,,Clear,0,2013-05-10 06:55:00
1:15 AM,33.8,32.0,93,30.29,10.0,Calm,Calm,-,N/A,,Clear,0,2013-05-10 07:15:00
1:35 AM,33.8,32.0,93,30.29,10.0,Calm,Calm,-,N/A,,Clear,0,2013-05-10 07:35:00
1:55 AM,32.0,30.2,93,30.29,10.0,Calm,Calm,-,N/A,,Clear,0,2013-05-10 07:55:00
2:15 AM,32.0,30.2,93,30.29,10.0,Calm,Calm,-,N/A,,Clear,0,2013-05-10 08:15:00
2:35 AM,33.8,30.2,87,30.28,10.0,Calm,Calm,-,N/A,,Clear,0,2013-05-10 08:35:00
2:54 AM,32.0,28.4,87,30.29,10.0,Calm,Calm,-,N/A,,Clear,0,2013-05-10 08:54:00
3:15 AM,32.0,30.2,93,30.29,10.0,Calm,Calm,-,N/A,,Clear,0,2013-05-10 09:15:00
3:55 AM,32.0,30.2,93,30.30,10.0,Calm,Calm,-,N/A,,Clear,0,2013-05-10 09:55:00
4:15 AM,30.2,28.4,93,30.30,10.0,Calm,Calm,-,N/A,,Clear,0,2013-05-10 10:15:00
4:34 AM,30.2,28.4,93,30.30,10.0,NE,3.5,-,N/A,,Clear,50,2013-05-10 10:34:00
4:54 AM,30.2,28.4,93,30.30,10.0,Calm,Calm,-,N/A,,Clear,0,2013-05-10 10:54:00
5:15 AM,30.2,28.4,93,30.31,10.0,Calm,Calm,-,N/A,,Clear,0,2013-05-10 11:15:00
5:35 AM,30.2,28.4,93,30.31,10.0,Calm,Calm,-,N/A,,Clear,0,2013-05-10 11:35:00
6:15 AM,30.2,28.4,93,30.32,10.0,Calm,Calm,-,N/A,,Clear,0,2013-05-10 12:15:00
6:35 AM,30.2,28.4,93,30.33,10.0,Calm,Calm,-,N/A,,Mostly Cloudy,0,2013-05-10 12:35:00
7:15 AM,32.0,30.2,93,30.33,10.0,Calm,Calm,-,N/A,,Scattered Clouds,0,2013-05-10 13:15:00
7:35 AM,33.8,32.0,93,30.34,10.0,Calm,Calm,-,N/A,,Clear,0,2013-05-10 13:35:00
7:55 AM,33.8,30.2,87,30.34,10.0,Calm,Calm,-,N/A,,Clear,0,2013-05-10 13:55:00
8:15 AM,35.6,30.2,81,30.34,10.0,Calm,Calm,-,N/A,,Clear,0,2013-05-10 14:15:00
8:35 AM,37.4,30.2,75,30.34,10.0,Calm,Calm,-,N/A,,Clear,0,2013-05-10 14:35:00
8:55 AM,41.0,30.2,65,30.34,10.0,Calm,Calm,-,N/A,,Clear,0,2013-05-10 14:55:00
9:15 AM,41.0,30.2,65,30.34,10.0,Calm,Calm,-,N/A,,Clear,0,2013-05-10 15:15:00
9:35 AM,42.8,30.2,61,30.34,10.0,NNE,3.5,-,N/A,,Clear,20,2013-05-10 15:35:00
9:55 AM,44.6,32.0,61,30.33,10.0,Calm,Calm,-,N/A,,Clear,0,2013-05-10 15:55:00
10:15 AM,50.0,33.8,54,30.33,10.0,Calm,Calm,-,N/A,,Clear,0,2013-05-10 16:15:00
10:35 AM,50.0,32.0,50,30.33,10.0,Calm,Calm,-,N/A,,Clear,0,2013-05-10 16:35:00
11:15 AM,53.6,32.0,44,30.32,10.0,NW,3.5,-,N/A,,Clear,320,2013-05-10 17:15:00
11:35 AM,53.6,28.4,38,30.31,10.0,NNE,4.6,-,N/A,,Scattered Clouds,30,2013-05-10 17:35:00
11:55 AM,55.4,30.2,38,30.31,10.0,North,4.6,-,N/A,,Mostly Cloudy,360,2013-05-10 17:55:00
12:15 PM,55.4,28.4,36,30.30,10.0,North,4.6,-,N/A,,Scattered Clouds,360,2013-05-10 18:15:00
12:35 PM,53.6,23.0,30,30.30,10.0,NNW,10.4,27.6,N/A,,Mostly Cloudy,340,2013-05-10 18:35:00
12:55 PM,57.2,28.4,33,30.30,10.0,ESE,9.2,-,N/A,,Mostly Cloudy,120,2013-05-10 18:55:00
1:15 PM,55.4,30.2,38,30.30,10.0,South,6.9,-,N/A,,Mostly Cloudy,180,2013-05-10 19:15:00
1:35 PM,55.4,28.4,36,30.30,10.0,SW,6.9,-,N/A,Thunderstorm,Mostly Cloudy,220,2013-05-10 19:35:00
1:55 PM,57.2,30.2,36,30.30,10.0,SW,9.2,-,N/A,,Mostly Cloudy,220,2013-05-10 19:55:00
2:14 PM,53.6,28.4,38,30.31,10.0,Calm,Calm,-,N/A,,Overcast,0,2013-05-10 20:14:00
2:35 PM,53.6,23.0,30,30.30,10.0,Calm,Calm,-,N/A,,Overcast,0,2013-05-10 20:35:00
2:55 PM,55.4,21.2,26,30.30,10.0,NNE,3.5,-,N/A,,Overcast,20,2013-05-10 20:55:00
3:15 PM,53.6,26.6,35,30.30,10.0,NW,8.1,-,N/A,,Overcast,310,2013-05-10 21:15:00
3:35 PM,59.0,30.2,34,30.28,10.0,West,16.1,19.6,N/A,,Scattered Clouds,260,2013-05-10 21:35:00
3:55 PM,57.2,28.4,33,30.28,10.0,West,10.4,-,N/A,,Scattered Clouds,270,2013-05-10 21:55:00
4:15 PM,60.8,23.0,23,30.27,10.0,NW,8.1,-,N/A,,Mostly Cloudy,310,2013-05-10 22:15:00
4:35 PM,59.0,14.0,17,30.27,10.0,NNE,12.7,18.4,N/A,,Mostly Cloudy,30,2013-05-10 22:35:00
4:55 PM,60.8,14.0,16,30.27,10.0,North,12.7,18.4,N/A,,Scattered Clouds,10,2013-05-10 22:55:00
5:15 PM,60.8,21.2,22,30.28,10.0,NNW,12.7,19.6,N/A,,Scattered Clouds,330,2013-05-10 23:15:00
5:35 PM,60.8,17.6,19,30.28,10.0,NNW,13.8,20.7,N/A,,Mostly Cloudy,340,2013-05-10 23:35:00
5:55 PM,60.8,21.2,22,30.28,10.0,NW,12.7,20.7,N/A,,Mostly Cloudy,320,2013-05-10 23:55:00
6:15 PM,59.0,19.4,22,30.28,10.0,NNE,17.3,-,N/A,,Scattered Clouds,20,2013-05-11 00:15:00
6:35 PM,55.4,21.2,26,30.29,10.0,NNE,13.8,18.4,N/A,,Scattered Clouds,20,2013-05-11 00:35:00
6:55 PM,59.0,21.2,23,30.30,10.0,NNE,8.1,-,N/A,,Mostly Cloudy,20,2013-05-11 00:55:00
7:15 PM,55.4,21.2,26,30.31,10.0,NE,10.4,-,N/A,,Mostly Cloudy,40,2013-05-11 01:15:00
7:35 PM,55.4,23.0,29,30.32,10.0,NNE,6.9,-,N/A,,Clear,30,2013-05-11 01:35:00
7:55 PM,53.6,23.0,30,30.32,10.0,ENE,9.2,-,N/A,,Clear,60,2013-05-11 01:55:00
8:15 PM,51.8,23.0,33,30.33,10.0,ENE,4.6,-,N/A,,Scattered Clouds,60,2013-05-11 02:15:00
8:35 PM,50.0,28.4,43,30.35,10.0,East,6.9,-,N/A,,Scattered Clouds,80,2013-05-11 02:35:00
8:55 PM,50.0,28.4,43,30.36,10.0,East,5.8,-,N/A,,Clear,80,2013-05-11 02:55:00
9:15 PM,48.2,28.4,46,30.37,10.0,Calm,Calm,-,N/A,,Clear,0,2013-05-11 03:15:00
9:35 PM,50.0,28.4,43,30.38,10.0,Calm,Calm,-,N/A,,Clear,0,2013-05-11 03:35:00
9:55 PM,44.6,28.4,53,30.39,10.0,Calm,Calm,-,N/A,,Clear,0,2013-05-11 03:55:00
10:15 PM,42.8,28.4,57,30.39,10.0,Calm,Calm,-,N/A,,Clear,0,2013-05-11 04:15:00
10:34 PM,41.0,28.4,61,30.40,10.0,Calm,Calm,-,N/A,,Clear,0,2013-05-11 04:34:00
10:54 PM,39.2,30.2,70,30.41,10.0,East,3.5,-,N/A,,Clear,80,2013-05-11 04:54:00
11:14 PM,37.4,30.2,75,30.41,10.0,Calm,Calm,-,N/A,,Clear,0,2013-05-11 05:14:00
11:35 PM,39.2,28.4,65,30.42,10.0,East,8.1,-,N/A,,Clear,100,2013-05-11 05:35:00
11:55 PM,37.4,30.2,75,30.42,10.0,NNW,5.8,-,N/A,,Clear,340,2013-05-11 05:55:00